REU206 FMEE-LFPG

Flight info

Callsign REU206
Flight time N/A
Altitude FL340
Route UVEN2J UVENA UN304 DWA XADOX KONET UG650 RASKA T513 EGMEG G660 JDW M686 OTEMO T55 KUNKI P751 METRU OLGAT PISIP VIE RUPAX ERPOG UTENO OSBUL CERVI MOLUS UNKIR GIVRI TINIL TINI9E
Aircraft B773/H-SDE1E2E3FGHIJ2J3J4J5M1RWXY/LB1D1

Departure

Time 2026-04-26 06:17
Airport Roland Garros Airport (FMEE)

Arrival

Time N/A
Airport Charles de Gaulle International Airport (LFPG)
Time Latitude Longitude Altitude Speed Heading
2026-04-26 05:53 -20.89065 55.51242 164 ft 0 kts 203°
2026-04-26 06:07 -20.89062 55.51244 163 ft 2 kts 207°
2026-04-26 06:07 -20.89050 55.51253 163 ft 2 kts 226°
2026-04-26 06:07 -20.89041 55.51265 163 ft 2 kts 238°
2026-04-26 06:08 -20.89034 55.51280 163 ft 2 kts 251°
2026-04-26 06:08 -20.89030 55.51295 163 ft 2 kts 265°
2026-04-26 06:08 -20.89030 55.51312 163 ft 2 kts 278°
2026-04-26 06:08 -20.89034 55.51328 163 ft 2 kts 292°
2026-04-26 06:09 -20.89040 55.51342 163 ft 2 kts 299°
2026-04-26 06:09 -20.89047 55.51356 163 ft 2 kts 297°
2026-04-26 06:09 -20.89054 55.51370 163 ft 2 kts 296°
2026-04-26 06:09 -20.89059 55.51380 163 ft 0 kts 296°
2026-04-26 06:12 -20.89053 55.51368 163 ft 5 kts 293°
2026-04-26 06:12 -20.89030 55.51315 162 ft 10 kts 296°
2026-04-26 06:12 -20.88997 55.51245 159 ft 11 kts 296°
2026-04-26 06:13 -20.88940 55.51191 156 ft 12 kts 337°
2026-04-26 06:13 -20.88854 55.51157 150 ft 15 kts 344°
2026-04-26 06:13 -20.88761 55.51111 145 ft 16 kts 322°
2026-04-26 06:13 -20.88710 55.51011 144 ft 15 kts 283°
2026-04-26 06:14 -20.88685 55.50914 143 ft 14 kts 280°
2026-04-26 06:14 -20.88669 55.50825 143 ft 13 kts 281°
2026-04-26 06:14 -20.88652 55.50738 143 ft 11 kts 282°
2026-04-26 06:14 -20.88637 55.50658 142 ft 11 kts 279°
2026-04-26 06:15 -20.88621 55.50581 141 ft 11 kts 282°
2026-04-26 06:15 -20.88588 55.50514 138 ft 8 kts 279°
2026-04-26 06:15 -20.88620 55.50496 139 ft 6 kts 142°
2026-04-26 06:15 -20.88622 55.50535 140 ft 4 kts 82°
2026-04-26 06:16 -20.88622 55.50568 140 ft 4 kts 93°
2026-04-26 06:16 -20.88624 55.50580 141 ft 0 kts 97°
2026-04-26 06:16 -20.88648 55.50723 142 ft 51 kts 102°
2026-04-26 06:17 -20.88763 55.51278 146 ft 112 kts 100°
2026-04-26 06:17 -20.88971 55.52317 150 ft 169 kts 105°
2026-04-26 06:17 -20.89214 55.53602 582 ft 184 kts 98°
2026-04-26 06:17 -20.89059 55.54950 1406 ft 189 kts 72°
2026-04-26 06:18 -20.88367 55.56145 1875 ft 203 kts 50°
2026-04-26 06:18 -20.87127 55.57011 2179 ft 228 kts 21°
2026-04-26 06:18 -20.85479 55.57192 2447 ft 253 kts 359°
2026-04-26 06:18 -20.83664 55.56938 2842 ft 272 kts 354°
2026-04-26 06:19 -20.81761 55.56618 3567 ft 278 kts 354°
2026-04-26 06:19 -20.79854 55.56295 4359 ft 281 kts 354°
2026-04-26 06:19 -20.77937 55.55913 5132 ft 285 kts 345°
2026-04-26 06:19 -20.76073 55.55190 5889 ft 288 kts 340°
2026-04-26 06:20 -20.74212 55.54367 6623 ft 293 kts 339°
2026-04-26 06:20 -20.72343 55.53540 7392 ft 294 kts 339°
2026-04-26 06:20 -20.70431 55.52703 8109 ft 298 kts 339°
2026-04-26 06:20 -20.68505 55.51865 8766 ft 303 kts 339°
2026-04-26 06:21 -20.66557 55.51017 9515 ft 304 kts 339°
2026-04-26 06:21 -20.64604 55.50168 10199 ft 307 kts 339°
2026-04-26 06:21 -20.62579 55.49289 10607 ft 322 kts 339°
2026-04-26 06:21 -20.60452 55.48364 10969 ft 339 kts 339°
2026-04-26 06:22 -20.58218 55.47392 11351 ft 355 kts 339°
2026-04-26 06:22 -20.55889 55.46376 11779 ft 369 kts 338°
2026-04-26 06:22 -20.53459 55.45313 12184 ft 383 kts 338°
2026-04-26 06:22 -20.50945 55.44213 12589 ft 397 kts 338°
2026-04-26 06:23 -20.48355 55.43081 13008 ft 410 kts 338°
2026-04-26 06:23 -20.45695 55.41918 13607 ft 417 kts 338°
2026-04-26 06:23 -20.43009 55.40745 14317 ft 419 kts 338°
2026-04-26 06:23 -20.40303 55.39563 15011 ft 422 kts 337°
2026-04-26 06:24 -20.37577 55.38374 15614 ft 427 kts 337°
2026-04-26 06:24 -20.34793 55.37160 16185 ft 433 kts 337°
2026-04-26 06:24 -20.32002 55.35943 16850 ft 435 kts 337°
2026-04-26 06:24 -20.29207 55.34725 17486 ft 438 kts 337°
2026-04-26 06:25 -20.26373 55.33491 18004 ft 443 kts 337°
2026-04-26 06:25 -20.23509 55.32244 18539 ft 448 kts 337°
2026-04-26 06:25 -20.20611 55.30983 19117 ft 452 kts 336°
2026-04-26 06:25 -20.17695 55.29714 19679 ft 455 kts 336°
2026-04-26 06:26 -20.14736 55.28427 20199 ft 459 kts 336°
2026-04-26 06:26 -20.11771 55.27139 20737 ft 463 kts 336°
2026-04-26 06:26 -20.08789 55.25844 21297 ft 465 kts 336°
2026-04-26 06:26 -20.05785 55.24538 21784 ft 469 kts 336°
2026-04-26 06:27 -20.02760 55.23224 22265 ft 473 kts 335°
2026-04-26 06:27 -19.99708 55.21899 22775 ft 476 kts 335°
2026-04-26 06:27 -19.96634 55.20566 23260 ft 480 kts 335°
2026-04-26 06:27 -19.93515 55.19213 23782 ft 482 kts 335°
2026-04-26 06:28 -19.90408 55.17866 24305 ft 485 kts 335°
2026-04-26 06:28 -19.87284 55.16516 24768 ft 488 kts 335°
2026-04-26 06:28 -19.84124 55.15148 25166 ft 493 kts 335°
2026-04-26 06:28 -19.80942 55.13771 25634 ft 496 kts 335°
2026-04-26 06:29 -19.77735 55.12385 26123 ft 499 kts 335°
2026-04-26 06:29 -19.74517 55.10993 26595 ft 502 kts 335°
2026-04-26 06:29 -19.71255 55.09583 27070 ft 505 kts 335°
2026-04-26 06:29 -19.67990 55.08173 27524 ft 508 kts 334°
2026-04-26 06:30 -19.64714 55.06758 27987 ft 510 kts 334°
2026-04-26 06:30 -19.61420 55.05341 28443 ft 512 kts 334°
2026-04-26 06:30 -19.58115 55.03914 28843 ft 516 kts 334°
2026-04-26 06:30 -19.54782 55.02482 29255 ft 518 kts 334°
2026-04-26 06:31 -19.51453 55.01046 29812 ft 517 kts 334°
2026-04-26 06:31 -19.48126 54.99612 30610 ft 510 kts 334°
2026-04-26 06:31 -19.44874 54.98213 31472 ft 502 kts 333°
2026-04-26 06:31 -19.41647 54.96823 31897 ft 502 kts 333°
2026-04-26 06:32 -19.38416 54.95432 31951 ft 500 kts 333°
2026-04-26 06:32 -19.32017 54.92681 31952 ft 495 kts 333°
2026-04-26 06:33 -19.25605 54.89925 31949 ft 494 kts 333°
2026-04-26 06:33 -19.19229 54.87187 31949 ft 495 kts 333°
2026-04-26 06:34 -19.12846 54.84449 31948 ft 495 kts 333°
2026-04-26 06:34 -19.06466 54.81716 31947 ft 495 kts 333°
2026-04-26 06:35 -19.00228 54.78665 31931 ft 489 kts 323°
2026-04-26 06:35 -18.95017 54.74205 31940 ft 482 kts 313°
2026-04-26 06:36 -18.90164 54.69356 31933 ft 481 kts 313°
2026-04-26 06:36 -18.85299 54.64501 31932 ft 481 kts 312°
2026-04-26 06:37 -18.80437 54.59657 31930 ft 482 kts 313°
2026-04-26 06:37 -18.75566 54.54814 31929 ft 482 kts 313°
2026-04-26 06:38 -18.70697 54.49978 31928 ft 482 kts 313°
2026-04-26 06:38 -18.65807 54.45125 31929 ft 482 kts 313°
2026-04-26 06:39 -18.60745 54.40497 31928 ft 487 kts 321°
2026-04-26 06:39 -18.54702 54.37162 31931 ft 493 kts 331°
2026-04-26 06:40 -18.48425 54.34194 31941 ft 494 kts 332°
2026-04-26 06:40 -18.42156 54.31235 31943 ft 494 kts 332°
2026-04-26 06:41 -18.35886 54.28276 31944 ft 494 kts 332°
2026-04-26 06:41 -18.29616 54.25316 31946 ft 494 kts 332°
2026-04-26 06:42 -18.23334 54.22353 31945 ft 494 kts 332°
2026-04-26 06:42 -18.17064 54.19398 31943 ft 494 kts 332°
2026-04-26 06:43 -18.10800 54.16448 31944 ft 493 kts 332°
2026-04-26 06:43 -18.04513 54.13470 31945 ft 494 kts 332°
2026-04-26 06:44 -17.98259 54.10497 31946 ft 494 kts 332°
2026-04-26 06:44 -17.91989 54.07520 31947 ft 494 kts 332°
2026-04-26 06:45 -17.85721 54.04546 31944 ft 494 kts 332°
2026-04-26 06:45 -17.79443 54.01570 31945 ft 492 kts 332°
2026-04-26 06:46 -17.73208 53.98617 31946 ft 493 kts 332°
2026-04-26 06:46 -17.66946 53.95654 31945 ft 493 kts 332°
2026-04-26 06:47 -17.60677 53.92689 31944 ft 493 kts 332°
2026-04-26 06:47 -17.54428 53.89737 31945 ft 492 kts 332°
2026-04-26 06:48 -17.48179 53.86785 31946 ft 493 kts 332°
2026-04-26 06:48 -17.41926 53.83833 31945 ft 492 kts 332°
2026-04-26 06:49 -17.35657 53.80878 31946 ft 492 kts 332°
2026-04-26 06:49 -17.29421 53.77939 31945 ft 491 kts 332°
2026-04-26 06:50 -17.23198 53.75009 31946 ft 492 kts 332°
2026-04-26 06:50 -17.16937 53.72063 31946 ft 491 kts 332°
2026-04-26 06:51 -17.10709 53.69135 31945 ft 491 kts 332°
2026-04-26 06:51 -17.01354 53.64740 31946 ft 492 kts 332°
2026-04-26 06:52 -16.95086 53.61800 31942 ft 491 kts 332°
2026-04-26 06:52 -16.88857 53.58881 31942 ft 490 kts 332°
2026-04-26 06:53 -16.82653 53.55975 31939 ft 489 kts 332°
2026-04-26 06:53 -16.76453 53.53072 31937 ft 489 kts 332°
2026-04-26 06:54 -16.70212 53.50152 31936 ft 489 kts 332°
2026-04-26 06:54 -16.64006 53.47251 31930 ft 490 kts 332°
2026-04-26 06:55 -16.57791 53.44348 31928 ft 489 kts 332°
2026-04-26 06:55 -16.51571 53.41443 31931 ft 488 kts 332°
2026-04-26 06:56 -16.45366 53.38546 31925 ft 489 kts 332°
2026-04-26 06:56 -16.39153 53.35650 31923 ft 489 kts 332°
2026-04-26 06:57 -16.32953 53.32762 31927 ft 488 kts 333°
2026-04-26 06:57 -16.26738 53.29871 31932 ft 488 kts 333°
2026-04-26 06:58 -16.20541 53.26989 31934 ft 489 kts 333°
2026-04-26 06:58 -16.14335 53.24106 31940 ft 488 kts 333°
2026-04-26 06:59 -16.08111 53.21216 31937 ft 488 kts 333°
2026-04-26 06:59 -16.01936 53.18351 31943 ft 486 kts 333°
2026-04-26 07:00 -15.95762 53.15489 31939 ft 486 kts 333°
2026-04-26 07:00 -15.89594 53.12631 31938 ft 486 kts 333°
2026-04-26 07:01 -15.83383 53.09755 31939 ft 486 kts 333°
2026-04-26 07:01 -15.77213 53.06900 31942 ft 485 kts 333°
2026-04-26 07:02 -15.71040 53.04045 31936 ft 485 kts 333°
2026-04-26 07:02 -15.64863 53.01190 31936 ft 485 kts 333°
2026-04-26 07:03 -15.58706 52.98346 31935 ft 485 kts 333°
2026-04-26 07:03 -15.52535 52.95499 31935 ft 485 kts 333°
2026-04-26 07:04 -15.46386 52.92661 31931 ft 484 kts 333°
2026-04-26 07:04 -15.40213 52.89814 31934 ft 483 kts 333°
2026-04-26 07:05 -15.34065 52.86982 31936 ft 484 kts 333°
2026-04-26 07:05 -15.27922 52.84155 31944 ft 483 kts 333°
2026-04-26 07:06 -15.21747 52.81315 31943 ft 483 kts 333°
2026-04-26 07:06 -15.15616 52.78496 31944 ft 482 kts 333°
2026-04-26 07:07 -15.09500 52.75686 31941 ft 481 kts 333°
2026-04-26 07:07 -15.03362 52.72867 31943 ft 482 kts 333°
2026-04-26 07:08 -14.97224 52.70051 31941 ft 481 kts 333°
2026-04-26 07:08 -14.91100 52.67243 31940 ft 482 kts 333°
2026-04-26 07:09 -14.84971 52.64434 31941 ft 481 kts 334°
2026-04-26 07:09 -14.78827 52.61623 31941 ft 482 kts 334°
2026-04-26 07:11 -14.63495 52.54605 31937 ft 482 kts 333°
2026-04-26 07:11 -14.57345 52.51793 31938 ft 482 kts 334°
2026-04-26 07:12 -14.51222 52.48996 31937 ft 482 kts 334°
2026-04-26 07:12 -14.45083 52.46195 31934 ft 483 kts 334°
2026-04-26 07:13 -14.38948 52.43397 31933 ft 482 kts 334°
2026-04-26 07:13 -14.32787 52.40588 31933 ft 483 kts 334°
2026-04-26 07:14 -14.26636 52.37788 31930 ft 484 kts 334°
2026-04-26 07:14 -14.20495 52.34991 31924 ft 482 kts 334°
2026-04-26 07:15 -14.14320 52.32185 31925 ft 484 kts 334°
2026-04-26 07:15 -14.08165 52.29382 31926 ft 482 kts 334°
2026-04-26 07:16 -14.02023 52.26586 31923 ft 484 kts 334°
2026-04-26 07:16 -13.95866 52.23786 31924 ft 484 kts 334°
2026-04-26 07:17 -13.89682 52.20977 31921 ft 484 kts 334°
2026-04-26 07:17 -13.83512 52.18177 31923 ft 484 kts 334°
2026-04-26 07:18 -13.77353 52.15384 31923 ft 484 kts 334°
2026-04-26 07:18 -13.71165 52.12579 31922 ft 485 kts 334°
2026-04-26 07:19 -13.65000 52.09786 31925 ft 485 kts 334°
2026-04-26 07:19 -13.58821 52.06988 31921 ft 485 kts 334°
2026-04-26 07:20 -13.52646 52.04195 31920 ft 485 kts 334°
2026-04-26 07:20 -13.46437 52.01388 31922 ft 486 kts 334°
2026-04-26 07:21 -13.40267 51.98600 31922 ft 485 kts 334°
2026-04-26 07:21 -13.34094 51.95812 31922 ft 485 kts 334°
2026-04-26 07:22 -13.27902 51.93017 31921 ft 485 kts 334°
2026-04-26 07:22 -13.21700 51.90219 31921 ft 486 kts 334°
2026-04-26 07:23 -13.15508 51.87427 31921 ft 486 kts 334°
2026-04-26 07:23 -13.09294 51.84628 31924 ft 488 kts 334°
2026-04-26 07:24 -13.03061 51.81819 31919 ft 486 kts 334°
2026-04-26 07:24 -12.96860 51.79025 31919 ft 485 kts 334°
2026-04-26 07:25 -12.90677 51.76243 31920 ft 486 kts 334°
2026-04-26 07:25 -12.84452 51.73443 31920 ft 486 kts 334°
2026-04-26 07:26 -12.78247 51.70655 31921 ft 487 kts 334°
2026-04-26 07:26 -12.72041 51.67866 31922 ft 487 kts 334°
2026-04-26 07:27 -12.65826 51.65075 31920 ft 487 kts 334°
2026-04-26 07:27 -12.59600 51.62280 31917 ft 488 kts 334°
2026-04-26 07:28 -12.53379 51.59490 31918 ft 488 kts 334°
2026-04-26 07:28 -12.47173 51.56708 31916 ft 487 kts 335°
2026-04-26 07:29 -12.40936 51.53912 31909 ft 488 kts 335°
2026-04-26 07:29 -12.34716 51.51126 31905 ft 489 kts 335°
2026-04-26 07:30 -12.28487 51.48338 31900 ft 488 kts 335°
2026-04-26 07:30 -12.22269 51.45556 31903 ft 488 kts 335°
2026-04-26 07:31 -12.16018 51.42761 31901 ft 488 kts 335°
2026-04-26 07:31 -12.09789 51.39976 31899 ft 489 kts 335°
2026-04-26 07:32 -12.03549 51.37190 31895 ft 490 kts 335°
2026-04-26 07:32 -11.97317 51.34406 31901 ft 489 kts 335°
2026-04-26 07:33 -11.91072 51.31620 31898 ft 488 kts 335°
2026-04-26 07:33 -11.84832 51.28836 31901 ft 487 kts 335°
2026-04-26 07:34 -11.78624 51.26070 31903 ft 488 kts 335°
2026-04-26 07:34 -11.72379 51.23287 31913 ft 487 kts 335°
2026-04-26 07:35 -11.66154 51.20513 31913 ft 490 kts 335°
2026-04-26 07:35 -11.59931 51.17741 31912 ft 488 kts 335°
2026-04-26 07:36 -11.53698 51.14967 31909 ft 489 kts 335°
2026-04-26 07:36 -11.47441 51.12193 31909 ft 488 kts 335°
2026-04-26 07:37 -11.41216 51.09432 31910 ft 488 kts 335°
2026-04-26 07:37 -11.34984 51.06667 31908 ft 489 kts 335°
2026-04-26 07:38 -11.28716 51.03886 31906 ft 490 kts 335°
2026-04-26 07:38 -11.22471 51.01115 31903 ft 490 kts 335°
2026-04-26 07:39 -11.16220 50.98343 31903 ft 490 kts 335°
2026-04-26 07:39 -11.09959 50.95567 31902 ft 490 kts 335°
2026-04-26 07:40 -11.03688 50.92787 31909 ft 491 kts 335°
2026-04-26 07:40 -10.97418 50.90009 31917 ft 490 kts 335°
2026-04-26 07:41 -10.91177 50.87247 31919 ft 490 kts 336°
2026-04-26 07:41 -10.84900 50.84464 31924 ft 491 kts 335°
2026-04-26 07:42 -10.78658 50.81694 31921 ft 489 kts 335°
2026-04-26 07:42 -10.72414 50.78923 31922 ft 490 kts 334°
2026-04-26 07:43 -10.66173 50.76157 31922 ft 489 kts 335°
2026-04-26 07:43 -10.59896 50.73386 31921 ft 489 kts 336°
2026-04-26 07:44 -10.53649 50.70649 31920 ft 490 kts 336°
2026-04-26 07:44 -10.47400 50.67898 31923 ft 489 kts 334°
2026-04-26 07:45 -10.41143 50.65124 31922 ft 489 kts 335°
2026-04-26 07:45 -10.34901 50.62364 31919 ft 490 kts 335°
2026-04-26 07:46 -10.28657 50.59609 31916 ft 489 kts 335°
2026-04-26 07:46 -10.22387 50.56854 31909 ft 488 kts 336°
2026-04-26 07:47 -10.16141 50.54124 31906 ft 490 kts 336°
2026-04-26 07:47 -10.09887 50.51386 31906 ft 490 kts 336°
2026-04-26 07:48 -10.03632 50.48642 31905 ft 489 kts 336°
2026-04-26 07:48 -9.97357 50.45875 31905 ft 491 kts 336°
2026-04-26 07:49 -9.91115 50.43120 31901 ft 489 kts 336°
2026-04-26 07:49 -9.84871 50.40370 31904 ft 489 kts 336°
2026-04-26 07:50 -9.75490 50.36240 31898 ft 489 kts 337°
2026-04-26 07:50 -9.69250 50.33507 31899 ft 488 kts 337°
2026-04-26 07:51 -9.62996 50.30763 31902 ft 489 kts 337°
2026-04-26 07:51 -9.56764 50.28020 31899 ft 487 kts 336°
2026-04-26 07:52 -9.50514 50.25281 31904 ft 488 kts 335°
2026-04-26 07:52 -9.44297 50.22558 31899 ft 486 kts 336°
2026-04-26 07:53 -9.38091 50.19842 31898 ft 485 kts 336°
2026-04-26 07:53 -9.31859 50.17113 31898 ft 487 kts 336°
2026-04-26 07:54 -9.25644 50.14384 31900 ft 486 kts 337°
2026-04-26 07:54 -9.19410 50.11659 31898 ft 488 kts 336°
2026-04-26 07:55 -9.13191 50.08941 31897 ft 485 kts 336°
2026-04-26 07:55 -9.06984 50.06227 31898 ft 485 kts 336°
2026-04-26 07:56 -9.00793 50.03505 31896 ft 485 kts 335°
2026-04-26 07:56 -8.94605 50.00803 31899 ft 485 kts 337°
2026-04-26 07:57 -8.88379 49.98074 31899 ft 486 kts 335°
2026-04-26 07:57 -8.82193 49.95371 31902 ft 485 kts 336°
2026-04-26 07:58 -8.75992 49.92673 31898 ft 484 kts 337°
2026-04-26 07:58 -8.69801 49.89975 31899 ft 484 kts 336°
2026-04-26 07:59 -8.63591 49.87255 31898 ft 485 kts 336°
2026-04-26 07:59 -8.57390 49.84541 31896 ft 485 kts 336°
2026-04-26 08:00 -8.51180 49.81827 31894 ft 487 kts 335°
2026-04-26 08:00 -8.44940 49.79107 31891 ft 487 kts 336°
2026-04-26 08:01 -8.38724 49.76410 31888 ft 486 kts 336°
2026-04-26 08:01 -8.32513 49.73700 31884 ft 486 kts 335°
2026-04-26 08:02 -8.26304 49.70998 31894 ft 487 kts 336°
2026-04-26 08:02 -8.20068 49.68280 31892 ft 486 kts 336°
2026-04-26 08:03 -8.13841 49.65575 31900 ft 488 kts 336°
2026-04-26 08:03 -8.07608 49.62858 31905 ft 488 kts 336°
2026-04-26 08:04 -8.01344 49.60141 31904 ft 488 kts 335°
2026-04-26 08:04 -7.95115 49.57422 31904 ft 487 kts 336°
2026-04-26 08:05 -7.88880 49.54707 31906 ft 489 kts 336°
2026-04-26 08:05 -7.82638 49.52004 31909 ft 488 kts 336°
2026-04-26 08:06 -7.76379 49.49279 31895 ft 488 kts 338°
2026-04-26 08:06 -7.70133 49.46573 31895 ft 490 kts 336°
2026-04-26 08:07 -7.63892 49.43853 31899 ft 488 kts 335°
2026-04-26 08:07 -7.57626 49.41121 31896 ft 489 kts 335°
2026-04-26 08:08 -7.51389 49.38420 31898 ft 488 kts 336°
2026-04-26 08:08 -7.45145 49.35709 31898 ft 489 kts 335°
2026-04-26 08:09 -7.38902 49.32995 31899 ft 488 kts 335°
2026-04-26 08:09 -7.32636 49.30292 31886 ft 487 kts 339°
2026-04-26 08:10 -7.26372 49.27637 31885 ft 490 kts 339°
2026-04-26 08:10 -7.20105 49.24899 31898 ft 490 kts 337°
2026-04-26 08:11 -7.13834 49.22180 31901 ft 489 kts 335°
2026-04-26 08:11 -7.07588 49.19453 31899 ft 489 kts 335°
2026-04-26 08:12 -7.01352 49.16739 31900 ft 488 kts 335°
2026-04-26 08:12 -6.95109 49.14030 31899 ft 489 kts 335°
2026-04-26 08:13 -6.88850 49.11318 31899 ft 488 kts 335°
2026-04-26 08:13 -6.82595 49.08611 31901 ft 489 kts 335°
2026-04-26 08:14 -6.76345 49.05922 31902 ft 489 kts 335°
2026-04-26 08:14 -6.71823 49.03962 31900 ft 487 kts 335°